Roanoke, VA

10:12 AM EDT on August 20, 2017 (GMT -0400)
Roanoke Regional-Woodrum

Weather History for KROA - October, 2014

Change the Weather History Date:

Tuesday, October 7, 2014

  Actual Average Record
Temperature  
Mean Temperature 62 °F 60 °F  
Max Temperature 71 °F 71 °F 97 °F (1941)
Min Temperature 53 °F 49 °F 27 °F (1935)
Degree Days  
Heating Degree Days 3 6  
Month to date heating degree days 34 36  
Since 1 July heating degree days 53 85  
Cooling Degree Days 0 1  
Month to date cooling degree days 12 9  
Year to date cooling degree days 1122 1195  
Growing Degree Days 12 (Base 50)    
Moisture  
Dew Point 53 °F    
Average Humidity 75    
Maximum Humidity 93    
Minimum Humidity 57    
Precipitation  
Precipitation 0.65 in 0.09 in 3.05 in (2016)
Month to date precipitation 1.01 0.64  
Year to date precipitation 30.82 32.66  
Snow  
Snow 0.00 in - - ()
Month to date snowfall 0.0  
Since 1 July snowfall 0.0  
Since 1 September snowfall 0.0  
Snow Depth 0.00 in    
Sea Level Pressure  
Sea Level Pressure 30.03 in    
Wind  
Wind Speed 5 mph (SW)    
Max Wind Speed 23 mph    
Max Gust Speed 29 mph    
Visibility 8 miles    
Events Rain , Thunderstorm    
T = Trace of Precipitation, MM = Missing Value Source: NWS Daily Summary

Daily Weather History Graph

Daily Weather History Graph

Search for Another Location

Airport or City:

Trip Planner

Search our weather history database for the weather conditions in past years. The results will help you decide how hot, cold, wet, or windy it might be!

Date:

Astronomy

Oct. 07, 2014 Rise Set
Actual Time 7:20 AM EDT 6:54 PM EDT
Civil Twilight 6:54 AM EDT 7:20 PM EDT
Nautical Twilight 6:24 AM EDT 7:50 PM EDT
Astronomical Twilight 5:54 AM EDT 8:20 PM EDT
Moon 6:28 PM EDT (10/7) 6:16 AM EDT (10/7)
Length of Visible Light 12h 25m
Length of Day
11h 33m
Waxing Gibbous, 99% of the Moon is Illuminated
Oct 7
Waxing Gibbous
Oct 8
Full
Oct 15
Last Quarter
Oct 23
New
Oct 30
First Quarter

Hourly Weather History & Observations

Time (EDT) Temp. Dew Point Humidity Pressure Visibility Wind Dir Wind Speed Gust Speed Precip Events Conditions
12:54 AM 59.0 °F 53.1 °F 81% 30.06 in 4.0 mi West 23.0 mph 32.2 mph 0.01 in Rain Heavy Rain
1:54 AM 55.9 °F 53.1 °F 90% 30.07 in 5.0 mi West 5.8 mph - 0.15 in Rain Rain
2:54 AM 55.9 °F 53.1 °F 90% 30.10 in 8.0 mi NW 19.6 mph 24.2 mph 0.05 in Rain Light Rain
3:01 AM 55.9 °F 50.0 °F 80% 30.11 in 8.0 mi NW 10.4 mph 24.2 mph 0.01 in Rain Light Rain
3:54 AM 54.0 °F 48.9 °F 83% 30.08 in 10.0 mi WSW 3.5 mph - 0.02 in   Overcast
4:54 AM 54.0 °F 50.0 °F 86% 30.07 in 10.0 mi NW 5.8 mph - N/A   Overcast
5:54 AM 53.1 °F 50.0 °F 89% 30.09 in 10.0 mi SE 3.5 mph - N/A   Overcast
6:54 AM 53.1 °F 50.0 °F 89% 30.07 in 10.0 mi South 3.5 mph - N/A   Overcast
7:54 AM 53.1 °F 50.0 °F 89% 30.08 in 10.0 mi Calm Calm - N/A   Mostly Cloudy
8:54 AM 54.0 °F 51.1 °F 90% 30.09 in 10.0 mi West 3.5 mph - N/A   Overcast
9:54 AM 55.9 °F 51.1 °F 84% 30.10 in 10.0 mi Calm Calm - 0.00 in   Overcast
10:54 AM 57.9 °F 52.0 °F 81% 30.09 in 10.0 mi Calm Calm - N/A   Mostly Cloudy
11:54 AM 62.1 °F 53.1 °F 72% 30.05 in 10.0 mi SE 3.5 mph - N/A   Mostly Cloudy
12:54 PM 66.0 °F 54.0 °F 65% 30.03 in 10.0 mi SE 5.8 mph - N/A   Mostly Cloudy
1:54 PM 69.1 °F 55.0 °F 61% 29.99 in 10.0 mi Calm Calm - N/A   Mostly Cloudy
2:54 PM 70.0 °F 53.1 °F 55% 29.96 in 10.0 mi South 11.5 mph - N/A   Overcast
3:54 PM 66.0 °F 54.0 °F 65% 29.97 in 10.0 mi South 6.9 mph - 0.00 in Rain Light Rain
4:36 PM 59.0 °F 53.1 °F 81% 30.04 in 4.0 mi West 11.5 mph - 0.07 in Rain Rain
4:54 PM 57.2 °F 53.6 °F 88% 30.03 in 4.0 mi WSW 4.6 mph - N/A Rain Rain
5:54 PM 59.0 °F 55.9 °F 90% 29.98 in 10.0 mi South 4.6 mph - 0.11 in Rain Light Rain
6:54 PM 59.0 °F 55.0 °F 87% 29.97 in 10.0 mi Calm Calm - 0.00 in   Overcast
7:54 PM 57.9 °F 57.0 °F 97% 29.97 in 10.0 mi SE 3.5 mph - 0.00 in Rain Light Rain
8:34 PM 57.9 °F 57.0 °F 97% 30.03 in 2.0 mi WNW 4.6 mph - 0.13 in Rain Heavy Rain
8:40 PM 57.9 °F 57.0 °F 97% 30.01 in 2.5 mi Calm Calm - 0.19 in Rain , Thunderstorm Heavy Thunderstorms and Rain
8:54 PM 60.1 °F 55.9 °F 86% 29.95 in 6.0 mi SW 10.4 mph 16.1 mph 0.23 in Rain , Thunderstorm Light Thunderstorms and Rain
9:26 PM 60.1 °F 55.0 °F 83% 29.95 in 10.0 mi SW 5.8 mph - 0.01 in   Mostly Cloudy
9:54 PM 59.0 °F 55.0 °F 87% 29.96 in 10.0 mi SSW 8.1 mph - 0.01 in   Scattered Clouds
10:54 PM 59.0 °F 55.9 °F 90% 29.96 in 10.0 mi Calm Calm - N/A   Mostly Cloudy
11:54 PM 60.1 °F 57.0 °F 90% 29.95 in 10.0 mi Calm Calm - N/A   Overcast